Regional Weather Roundup
Issued by NWS

Home | Current Version | Previous Version | Text Only | Print | Product List | Glossary Off
Versions: 1 2 3 4 5 6 7 8 9 10 11 12 13 14 15 16 17 18 19 20 21 22 23 24 25 26 27 28 29 30 31 32 33 34 35 36 37 38 39 40 41 42 43 44 45 46 47 48 49 50

000
ASUS45 KTFX 262119
RWRMT
MONTANA HOURLY WEATHER ROUNDUP
NATIONAL WEATHER SERVICE GREAT FALLS MT
219 PM MST WED NOV 26 2014

NOTE: "FAIR" INDICATES FEW OR NO CLOUDS BELOW 12000 FEET WITH NO
SIGNIFICANT WEATHER AND/OR OBSTRUCTIONS TO VISIBILITY.

* THESE STATIONS ARE NOT UNDER NWS QUALITY CONTROL. THEY DO NOT
   REPORT WEATHER SUCH AS PRECIPITATION OR FOG.

MTZ001>007-043-262200-
WEST OF THE DIVIDE
CITY           SKY/WX    TMP DP  RH WIND       PRES   REMARKS
KALISPELL      LGT SNOW  32  32 100 CALM      30.12S VSB 1
MISSOULA       FOG       34  34 100 CALM      30.18S
BUTTE          CLOUDY    43  34  71 W7        30.13S
MULLAN PASS    FOG       34  34 100 W8        30.12R VSB M1/4 WCI  27
* ESSEX        N/A       30  28  92 NW1        N/A
* EUREKA APT   CLOUDY    34  30  85 CALM      30.13S VSB 3
* HAMILTON APT PTSUNNY   50  36  59 SW8       30.16F
* LIBBY APT    CLOUDY    34  32  92 CALM      30.12S
* LINCOLN      N/A       36  33  89 S2         N/A
* LOOKOUT PASS N/A       40  38  93 VRB5       N/A   WCI  36
* POLSON       N/A       34  33  96 E1         N/A
* RONAN APT    CLOUDY    34  30  85 N/A        N/A
* SEELEY LAKE  N/A       33  31  92 N/A        N/A
* THOMP F APT  CLOUDY    35  31  85 S4         N/A
* YAAK HILL    N/A       33  31  92 N/A        N/A
$$

MTZ008-052>055-262200-
SOUTHWEST MONTANA
CITY           SKY/WX    TMP DP  RH WIND       PRES   REMARKS
BOZEMAN        CLOUDY    28  27  96 CALM      30.14R
DILLON         CLOUDY    48  32  54 S15G24    30.17S
* W YELLOWSTON CLOUDY    36  32  85 SW6G16     N/A   WCI  31
* ENNIS APT    CLOUDY    45  30  56 SE11       N/A
* THREE FORKS  CLOUDY    30   5  34 N/A        N/A
* BOULDER HILL N/A       39  29  67 S6G12      N/A   WCI  35
* MONIDA PASS  N/A       31  31 100 SE15       N/A   WCI  20
* RAYNOLDS PAS N/A       36  18  48 S12G17     N/A   WCI  28
* WHITEHALL    N/A       38  33  82 N9G15      N/A   WCI  32
* WISE RIVER   N/A       45  31  58 NW12G26    N/A
$$

MTZ009>010-012-014-046-048-049-054-262200-
EAST SLOPES AND CENTRAL MONTANA
CITY           SKY/WX    TMP DP  RH WIND       PRES   REMARKS
CUT BANK       LGT SNOW  28  27  96 SE10      30.09S VSB 1/2  WCI  19
GREAT FALLS    LGT SNOW  28  28 100 E9        30.08F VSB 1/2  WCI  19
HELENA         FOG       34  30  85 W3        30.11S
MALMSTROM AFB  LGT SNOW  28  28 100 SE10      30.12F VSB 2    WCI  19
* CONRAD       CLOUDY    28  28 100 E6         N/A   WCI  21
* DEARBORN     N/A       32  29  89 N/A        N/A
* EAST GLACIER N/A       26  25  96 SE6        N/A   WCI  19
* MONARCH      N/A       26  21  81 E12        N/A   WCI  15
* PENDROY      N/A       28  28 100 SE10       N/A   WCI  19
* ROGERS PASS  N/A       35  31  85 SE13G20    N/A   WCI  26
* SAINT MARY   N/A       29  26  89 N3         N/A
* SWEET GRASS  N/A       27  27 100 S16        N/A   WCI  15
* WHITE SULPH  N/A       31  26  82 NE6        N/A   WCI  25
$$

MTZ011-013-016-021-035-040-045-047-050-051-262200-
NORTH CENTRAL MONTANA
CITY           SKY/WX    TMP DP  RH WIND       PRES   REMARKS
HAVRE          CLOUDY    32  27  82 E9        30.18F WCI  24
LEWISTOWN      LGT SNOW  28  25  89 E9        30.12F VSB 1 3/4 WCI  19
* N BAR RANCH  FOG       27  25  92 E10       30.14F VSB 1 1/4 WCI  18
* CHINOOK      PTSUNNY   30  25  82 E9        30.21F WCI  22
* FORT BENTON  CLOUDY    32  28  85 E5        30.15F WCI  27
* CHESTER      N/A       29  27  92 SE5G11     N/A   WCI  24
* DENTON       N/A       30  28  92 E6         N/A   WCI  24
* GEYSER       N/A       28  25  89 NE4        N/A
* JUDITH GAP   N/A       26  26 100 SE12       N/A   WCI  15
* LOMA         N/A       30  29  96 E12        N/A   WCI  20
$$

MTZ017>020-022>027-061-062-262200-
NORTHEAST MONTANA
CITY           SKY/WX    TMP DP  RH WIND       PRES   REMARKS
GLASGOW        CLOUDY    23  16  74 E12       30.28R WCI  11
GLENDIVE       PTSUNNY   21  14  74 E3        30.31S
JORDAN         CLOUDY    28  23  81 SE8       30.25S WCI  20
SIDNEY         PTCLDY    18  10  71 N6        30.37S WCI  10
WOLF POINT     CLOUDY    19  10  68 E13       30.35S WCI   6
* BEAVER HILL  N/A       20  13  74 SE1        N/A
* CIRCLE       N/A       25  20  81 E1         N/A
* LINDSAY DVD  N/A       22  15  74 SE6        N/A   WCI  14
* NAVAJO       N/A       11   5  77 E5         N/A   WCI   2
* PLENTYWOOD A PTCLDY     9   1  70 N5        30.34S
* POPLAR APT   PTCLDY    16   7  67 N/A       30.35S
* SACO         N/A       28  22  78 SE8        N/A   WCI  20
$$

MTZ028>042-056>058-262200-
SOUTHCENTRAL AND SOUTHEAST MONTANA
CITY           SKY/WX    TMP DP  RH WIND       PRES   REMARKS
BAKER          CLOUDY    23  18  81 NE8       30.26S WCI  14
BILLINGS       LGT SNOW  28  28 100 E7        30.18S VSB 3/4  WCI  21
LIVINGSTON     CLOUDY    28  25  89 NE8       30.10F WCI  20
MILES CITY     CLOUDY    28  23  81 NE8       30.26S WCI  20
* BIG TIMBER A CLOUDY    27  25  92 CALM      30.13F
* FORSYTH APT  CLOUDY    28  28 100 E7        30.25R VSB 2 1/2 WCI  21
* LAUREL APT   CLOUDY    28  23  81 N/A        N/A
* ALZADA       N/A       30  24  78 NW4        N/A
* HYSHAM       N/A       30  27  89 E4         N/A
* REED POINT   N/A       31  29  92 E3         N/A
* ROSCOE HILL  N/A       28  20  72 W1G6       N/A
$$

REGIONAL REPORTS...DAKOTAS
CITY           SKY/WX    TMP DP  RH WIND       PRES   REMARKS
WILLISTON      PTCLDY    12   3  67 NE8       30.36S
DICKINSON      PTCLDY    21  12  68 N7        30.27R WCI  12
BEACH          SUNNY     18  14  84 CALM      30.29R
CROSBY         SUNNY      5   0  80 E6        30.39S WCI  -6
TIOGA          SUNNY      9   5  84 E7        30.37R WCI  -2
BISMARCK       CLOUDY    10   1  67 NE7       30.40R WCI  -1
GRAND FORKS    SUNNY      3  -6  66 N14       30.48R WCI -15
FARGO          PTCLDY     5  -6  60 N16       30.45R WCI -14
BUFFALO SD     CLOUDY    28  21  75 NE9       30.17R WCI  19
RAPID CITY     CLOUDY    30  23  75 S3        30.23R
$$

REGIONAL REPORTS...WYOMING/IDAHO/WASHINGTON
CITY           SKY/WX    TMP DP  RH WIND       PRES   REMARKS
GILLETTE       CLOUDY    28  25  89 S5        30.18S WCI  22
SHERIDAN       LGT SNOW  30  27  89 CALM      30.18R VSB 1 3/4
CODY           PTCLDY    27  25  92 N3        30.12F
YELLOWSTONE LA CLOUDY    34  28  79 W8        30.24R WCI  27
SALMON         CLOUDY    39  36  89 CALM      30.19F
MULLAN PASS    FOG       34  34 100 W8        30.12S VSB M1/4 WCI  27
SAND POINT     CLOUDY    34  34 100 S7        30.14F WCI  28
SPOKANE        FOG       43  41  93 S5        30.11F VSB 2 1/2
$$

REGIONAL REPORTS...ALBERTA
CITY           SKY/WX    TMP DP  RH WIND       PRES   REMARKS
CALGARY        FOG       28  23  81 S8        30.07F WCI  20
LETHBRIDGE     LGT SNOW  32  32 100 S7        30.10F VSB 1 1/4 WCI  25
MEDICINE HAT   CLOUDY    28  23  81 E3        30.18F
EDMONTON       PTSUNNY   16  12  84 N2        30.13F
WATERTON GATE  N/A       30  28  92 E2         N/A
CARDSTON       N/A       30  30 100 SE8        N/A   WCI  22
MILK RIVER     N/A       28  28 100 S14        N/A   WCI  17
$$

REGIONAL REPORTS...SASKATCHEWAN
CITY           SKY/WX    TMP DP  RH WIND       PRES   REMARKS
SWIFT CURRENT  PTSUNNY   14  12  92 S14       30.22F WCI  -1
MOOSE JAW      SUNNY      3  -2  79 E9        30.38S WCI -11
REGINA         SUNNY      1  -6  72 SE7       30.39F WCI -12
VAL MARIE      N/A       25  21  85 S7         N/A   WCI  17
ASSINIBOIA     N/A       10   3  73 SE8        N/A   WCI  -2
CORONACH       N/A       12   7  80 SE6        N/A   WCI   2

$$




USA.gov is the U.S. government's official web portal to all federal, state and local government web resources and services.